Location: Czekanka
(50.4925°N, 19.2643°E)
Time: 12:00:48
(UTC+00:00)

Cosmos 292 Rocket - Pass Details

Date: 15 June 2024
Orbit: 667 x 689 km, 74.0° (Epoch: 16 July)

Event Time Altitude Azimuth Distance (km) Brightness Sun altitude
Exits shadow 00:04:35 22° 198° (SSW) 1,462 4.8 -14.0°
Maximum altitude 00:07:39 83° 113° (ESE) 692 3.7 -13.9°
Drops below altitude 10° 00:12:29 10° 25° (NNE) 2,140 7.8 -13.6°
Sets 00:14:48 0° 25° (NNE) 3,063 9.2 -13.5°
